FW5670 Weather Reports


time (UTC)temp
C
wind
direction
speed
KPH
gust
KPH
rain 1hr
cm
rain 24hr
cm
rain mn
cm
humidity
%
barometer
mb
20260510190100 20 135 0.0 4.8 0.03 0.53 0.18 65 1012.1
20260510184558 21 131 0.0 4.8 0.03 0.64 0.18 64 1012.3
20260510183049 21 150 0.0 1.6 0.03 0.64 0.18 66 1012.4
20260510181603 20 0 0.0 0.0 0.03 0.64 0.18 77 1012.3
20260510180052 20 0 0.0 1.6 0.00 0.61 0.15 74 1012.1
20260510174557 20 0 0.0 1.6 0.00 0.61 0.15 71 1012.0
20260510173044 21 252 3.2 9.7 0.00 0.61 0.15 68 1012.0
20260510171557 21 40 1.6 9.7 0.00 0.61 0.15 72 1012.0
20260510170047 21 63 3.2 6.4 0.00 0.61 0.15 70 1012.1
20260510164538 21 42 3.2 11.3 0.00 0.61 0.15 70 1012.3
20260510163055 21 38 1.6 6.4 0.00 0.61 0.15 73 1012.4
20260510161548 20 95 0.0 6.4 0.00 0.61 0.15 72 1012.5
20260510160050 20 0 1.6 6.4 0.00 0.61 0.15 73 1012.4
20260510154553 19 0 0.0 6.4 0.00 0.61 0.15 79 1012.7
20260510153058 18 0 0.0 4.8 0.00 0.61 0.15 78 1012.7
20260510151552 17 0 1.6 3.2 0.00 0.61 0.15 81 1012.7
20260510150055 17 0 0.0 3.2 0.03 0.61 0.15 82 1012.8
20260510144558 16 72 0.0 4.8 0.03 0.61 0.15 87 1012.8
20260510143049 15 0 0.0 3.2 0.03 0.61 0.15 88 1012.8
20260510141552 15 143 1.6 4.8 0.03 0.61 0.15 89 1012.7
20260510140051 15 0 0.0 1.6 0.00 0.58 0.13 90 1012.5
20260510134552 14 0 0.0 1.6 0.00 0.58 0.13 91 1012.7
20260510133052 13 0 0.0 0.0 0.00 0.58 0.13 94 1012.7
20260510131548 12 0 0.0 0.0 0.00 0.58 0.13 93 1012.5
20260510130050 12 0 0.0 0.0 0.00 0.58 0.13 94 1012.3
20260510124548 11 0 0.0 0.0 0.00 0.58 0.13 94 1012.2
20260510123052 11 0 0.0 0.0 0.00 0.58 0.13 94 1012.2
20260510121548 11 0 0.0 0.0 0.03 0.58 0.13 94 1012.0
20260510120122 11 0 0.0 0.0 0.03 0.58 0.13 94 1011.7
20260510114551 11 0 0.0 0.0 0.03 0.61 0.13 94 1011.7
20260510113049 11 0 0.0 0.0 0.03 0.61 0.13 94 1011.7
20260510111551 11 0 0.0 0.0 0.00 0.58 0.10 94 1011.4
20260510110100 10 0 0.0 0.0 0.00 0.58 0.10 94 1011.2
20260510104548 10 0 0.0 0.0 0.00 0.58 0.10 94 1011.1
20260510103054 10 0 0.0 0.0 0.00 0.58 0.10 94 1011.1
20260510101601 10 0 0.0 0.0 0.03 0.58 0.10 94 1011.1
20260510100054 10 0 0.0 0.0 0.03 0.58 0.10 94 1011.1
20260510094555 10 0 0.0 0.0 0.03 0.58 0.10 94 1011.0
20260510093055 10 0 0.0 0.0 0.03 0.58 0.10 94 1010.9
20260510091551 10 0 0.0 0.0 0.00 0.56 0.08 93 1011.3
20260510090055 10 0 0.0 0.0 0.00 0.56 0.08 94 1011.2
20260510084603 10 0 0.0 0.0 0.00 0.56 0.08 94 1011.3
20260510083050 10 0 0.0 0.0 0.03 0.56 0.08 94 1011.3
20260510081557 10 0 0.0 0.0 0.03 0.56 0.08 93 1011.4
20260510080059 10 0 0.0 0.0 0.03 0.56 0.08 93 1011.4
20260510074555 10 0 0.0 0.0 0.03 0.56 0.08 94 1011.4
20260510073053 10 0 0.0 0.0 0.00 0.53 0.05 93 1010.4
20260510071549 10 0 0.0 0.0 0.00 0.53 0.05 93 1010.5
20260510070052 10 0 0.0 0.0 0.03 0.53 0.05 93 1010.6
20260510064546 11 0 0.0 0.0 0.03 0.56 0.05 93 1010.8
20260510063043 11 0 0.0 0.0 0.03 0.56 0.05 93 1010.7
20260510061552 11 0 0.0 0.0 0.03 0.56 0.05 93 1010.9
20260510060050 11 0 0.0 0.0 0.00 0.53 0.03 93 1010.7
20260510054549 11 0 0.0 0.0 0.03 0.53 0.03 93 1010.6
20260510053053 11 0 0.0 0.0 0.03 0.53 0.03 93 1010.5
20260510051549 11 0 0.0 0.0 0.03 0.53 0.03 93 1010.6
20260510050052 11 0 0.0 0.0 0.03 0.53 0.03 93 1010.6
20260510044549 11 0 0.0 0.0 0.03 0.51 0.00 93 1010.6
20260510043042 11 0 0.0 0.0 0.03 0.51 0.00 93 1010.7
20260510041545 11 0 0.0 0.0 0.03 0.51 0.00 93 1010.7
20260510040048 11 0 0.0 0.0 0.03 0.51 0.00 93 1010.7
20260510034550 11 0 0.0 0.0 0.00 0.48 0.48 93 1010.6
20260510033056 11 0 0.0 0.0 0.03 0.48 0.48 93 1010.3
20260510031549 11 0 0.0 0.0 0.03 0.48 0.48 93 1010.3
20260510030045 11 0 0.0 0.0 0.03 0.48 0.48 93 1010.5
20260510024545 10 0 0.0 0.0 0.03 0.48 0.48 93 1010.7
20260510023048 10 0 0.0 0.0 0.03 0.46 0.46 93 1010.6
20260510021630 10 0 0.0 0.0 0.03 0.46 0.46 93 1010.5
20260510020058 10 0 0.0 0.0 0.03 0.46 0.46 92 1010.6
20260510014555 10 0 0.0 0.0 0.03 0.46 0.46 92 1010.6
20260510013053 10 0 0.0 0.0 0.03 0.43 0.43 92 1010.4
20260510011542 10 0 0.0 0.0 0.03 0.43 0.43 92 1010.4
20260510010052 10 0 0.0 0.0 0.03 0.43 0.43 92 1010.1
20260510004548 11 0 0.0 0.0 0.05 0.43 0.43 92 1009.9
20260510003049 11 0 0.0 0.0 0.03 0.41 0.41 92 1010.0
20260510001544 11 0 0.0 0.0 0.05 0.41 0.41 92 1010.0
20260510000041 11 0 0.0 0.0 0.05 0.41 0.41 92 1010.0
20260509234540 11 0 0.0 0.0 0.03 0.38 0.38 92 1009.8
20260509233040 11 0 0.0 0.0 0.05 0.38 0.38 92 1009.9
20260509231549 11 0 0.0 0.0 0.03 0.36 0.36 91 1009.8
20260509230048 12 0 0.0 0.0 0.05 0.36 0.36 91 1009.7
20260509224549 12 0 0.0 0.0 0.05 0.33 0.33 92 1010.0
20260509223041 11 0 0.0 0.0 0.05 0.33 0.33 92 1009.9
20260509221549 11 0 0.0 0.0 0.05 0.30 0.30 91 1009.9
20260509220051 11 0 0.0 0.0 0.08 0.30 0.30 91 1010.0
20260509214549 11 0 0.0 0.0 0.05 0.28 0.28 91 1010.3
20260509213103 11 0 0.0 0.0 0.08 0.28 0.28 91 1010.4
20260509211549 11 0 0.0 0.0 0.05 0.25 0.25 90 1010.3
20260509210046 11 0 0.0 1.6 0.05 0.23 0.23 90 1010.2
20260509204541 12 0 0.0 1.6 0.05 0.23 0.23 90 1010.3
20260509203046 12 0 0.0 1.6 0.03 0.20 0.20 89 1010.6
20260509201541 12 0 0.0 1.6 0.05 0.20 0.20 88 1010.4
20260509200051 12 0 0.0 0.0 0.03 0.18 0.18 88 1010.7
20260509194553 12 0 0.0 0.0 0.05 0.18 0.18 87 1010.6
20260509193049 12 0 0.0 0.0 0.08 0.18 0.18 88 1010.6
20260509191557 12 0 0.0 0.0 0.08 0.15 0.15 87 1010.4